Погода Чапаево

Погода Чапаево : погода сейчас, прогноз погоды и архив. Всё, что Вы хотите узнать о погоде Чапаево!

Поиск расширенной информации на нашем сайте:

Полезная информация: Цена на провод бпдо.

Другие новости

Новости СМИ2

Главная страница сайта

Новости сайта

02.10.2013

Напоминаем, что на нашем новом сайте вы можете получить высокодетализированные прогнозы погоды по пунктам России, СНГ и мира (включающие важные для авиации метеовеличины, такие как направление и скорость ветра, видимость, явления погоды, количество и форма облачности, нижняя и верхняя граница облачности), а также ознакомиться с разнообразными материалами по авиационной метеорологии и подборкой полезных ссылок на эту тему.

Сайт Метеоцентр.Азия посвящён разработке технологий оптимизации авиаметеорологического обслуживания, включая проектирование и перспективное создание нескольких автоматизированных авиаметеорологических систем:
- система выпуска высокодетальных прогностических карт явлений погоды для нижнего воздушного пространства по России и ближнему зарубежью;
- система верификации прогнозов TAF (выпускаемых синоптиками официальных АМСГ РФ и ближнего зарубежья) и AUTOTAF (выпускаемых сайтом Метеоцентр.Азия) - выявление ошибок, онлайн-сопоставление с фактической погодой METAR, автоматическое внесение коррективов в прогнозы при резком отклонении фактической погоды от прогноза, подсчёт оправдываемости прогнозов по элементам и в целом;
- система обработки, анализа и отображения авиаметеорологической информации для применения провайдерами метеорологической информации.

Рекомендуем: Капсулы яблочный уксус - по низким ценам!

Погода Чапаево - сегодня

Время (UTC), дата Ветер
(°,м/с) 
Видим.   Явления Облачность Т
(°С)
Тd
(°С)
f(%) Тe
(°С)
Pmin
(гПа)
dP
(гПа)
Po
(мм)
O2
(г/м3)
Тmin Tmax R s Состояние
почвы
03 22.03.17 110 (В) 10 км  дымка  10/10 600 м 
[Sc]
-3 -4 93 -8  1013.8  0.7  759  310        11  мокрый или
старый снег
10-40% 
06 22.03.17 090 (В) 4000 м  слаб. переохл. морось (гололёд)  10/10 600 м 
[St]
-2.5 -2.8 98 -7  1015.4  1.6  760  309  -3.6         
09 22.03.17 090 (В) 4000 м  дымка{морось} [диам. гололёда 1 мм]  10/10 600 м 
[St]
-1.6 -1.8 99 -5  1016.6  1.2  761  309           
12 22.03.17 090 (В) 4000 м  дымка{морось} [диам. гололёда 1 мм]  10/10 600 м 
[St]
-0.3 -0.9 96 -4  1017.6  762  307           
15 22.03.17 110 (В) 4000 м  слаб. морось  10/10 600 м 
[St]
+0.2 -0.1 98 -3  1018.9  1.3  763  307    +0.3  0.3     
18 22.03.17 110 (В) н/о  слаб. морось  10/10 600 м 
[St]
+0 -1.2 92 -2  1020.7  1.8  764  308    +0.3  0.3     
21 22.03.17 090 (В) н/о  дымка{морось}  10/10 600 м 
[St]
+0.2 -1.6 88 -2  1021.3  0.6  765  308           
00 23.03.17 140 (ЮВ) н/о  {морось}  10/10 600 м 
[Sc]
+0 -1.5 90 -1  1022  0.7  765  308           
03 23.03.17 180 (Ю) 20000 м    10/10 600 м 
[Sc]
+0.8 -1.2 86 +1  1023.2  1.2  766  308      0.0  мокрый или
старый снег
10-40% 
06 23.03.17 200 (Ю) 20000 м    10/10 600 м 
[Sc]
+2 +0.4 89 +1  1024.6  1.4  767  307  +0    0.0     
09 23.03.17 200 (Ю) 20000 м    9/9 600 м 
[Cu Sc]
+4.4 -0.8 69 +3  1024.8  0.2  767  304           
12 23.03.17 160 (Ю) 20000 м    10/10 600 м 
[Cu Sc]
+6.3 +0 64 +6  1024.5  -0.3  767  302           
15 23.03.17 110 (В) 20000 м    9/9 600 м 
[Sc]
+2.1 +0.2 87 +1  1024.7  0.2  767  307    +6.5       
18 23.03.17 090 (В) н/о    ясно 
+0.2 -0.7 94 -1  1024.7  767  309    +6.5       
21 23.03.17 тихо ()   н/о    ясно 
-1.8 -2.3 96 -2  1024.9  0.1  767  311           
00 24.03.17 290 (З) н/о  дымка  8/8 600 м 
[Sc]
-0.8 -1.5 95 1024.8  767  310           
03 24.03.17 290 (З) 20000 м    9/0 средняя 
[Ac und]
+0 -1.1 92 -1  1025.2  0.4  767  309        мокрый или
старый снег
10-40% 
06 24.03.17 290 (З) 20000 м    10/10 600 м 
[Sc]
+1.4 -0.9 85 +1  1025.7  0.5  768  308  -1.8         
09 24.03.17 290 (З) 20000 м    10/10 600 м 
[Sc]
+3.9 +0.4 78 +3  1025.2  -0.5  767  305           
12 24.03.17 320 (СЗ) 20000 м    9/0 средняя 
[Ac und]
+3.2 +1.1 86 +1  1025  -0.2  767  305           
15 24.03.17 тихо ()   4000 м  дымка  6/0 средняя 
[Ac und]
+2 -6.6 53 +2  1025  767  308    +4       
18 24.03.17 140 (ЮВ) н/о  дымка  10/0 средняя 
[Ac As]
-0.2 -1.7 90 1024.8  -0.2  767  310    +4       
21 24.03.17 140 (ЮВ) н/о  дымка  10/10 600 м 
[St]
-0.8 -2.1 91 -3  1023.2  -1.6  766  310           
00 25.03.17 160 (Ю) н/о  туман  ?/?  
-0.6 -1.3 95 -2  1021.1  -2.1  764  309           
03 25.03.17 180 (Ю) 20000 м  {туман}  6/0 средняя 
[Ac trans]
-0.3 -1.5 92 -2  1018.6  -2.5  763  308        мокрый или
старый снег
10-40% 
Время (UTC), дата Ветер
(°,м/с) 
Видим.   Явления Облачность Т
(°С)
Тd
(°С)
f(%) Тe
(°С)
Pmin
(гПа)
dP
(гПа)
Po
(мм)
O2
(г/м3)
Тmin Tmax R s Состояние
почвы

Для получения пояснительной информации подведите курсор к названию столбца.

ПОГОДА Чапаево - архив

Всё, что Вы хотите узнать о погоде Чапаево - удобно и подробно!

Выберите нужную дату (начиная с 1 января 2015* года) и нажмите кнопку "Найти".
Будут отображены архивные сводки погоды по пункту Чапаево, начиная с указанной даты.


Отображать данные в формате CSV (для использования в таблицах Excel)


Внимание! Наш архив погоды предназначен исключительно для личного некоммерческого использования в познавательных целях. Если Вам необходимы официальные справки о состоянии погоды (для производственных, юридических, коммерческих и т.п. целей), обращайтесь в органы Росгидромета.

*Примечание: данная дата относится к архиву по метеостанциям СССР (Россия, СНГ, Балтия).
Архив по метеостанциям Зарубежной Европы и Азии (кроме Китая) хранится 10 дней, по другим регионам земного шара (Китай, Африка, Америка, Австралия, Океания) - 1 день.

Чапаево - район местоположения метеостанции


Название, широта, долгота, высота метеостанции:
Чапаево 50.2°ш. 51.2°д. 17 м над ур. моря [Казахстан]

Дополнительная информация

В oтличие oт бoльшинства пoгoдных сайтoв мы публикуем пoдрoбную метеoинфoрмацию в детальнoм прoфессиoнальнoм фoрмате.

Характеристики температуры и влажнoсти вoздуха измеряются на высoте 2 м в тени вдали oт зданий и деревьев.
Скoрoсть ветра измеряется на высoте 10 м (на урoвне рoста челoвека скoрoсть ветра ниже в 1.5-2 раза). Если метеoстанция нахoдится в гoрoде или в лесу, тo скoрoсть ветра занижена на 2-4 м/с пo сравнению с oткрытым местoм. Скoрoсть ветра над акватoриями крупных рек и oзёр, а также на вершинах хoлмoв на 2-5 м/с выше, чем в oбычных услoвиях.
Атмoсфернoе давление в разных тoчках местнoсти мoжет значительнo oтличаться oт давления на метеoстанции, в зависимoсти oт услoвий рельефа (при пoдъёме на 10 м давление пoнижается примернo на 1 мм рт.ст.).